FW9567 Weather Reports


time (UTC)temp
C
wind
direction
speed
KPH
gust
KPH
rain 1hr
cm
rain 24hr
cm
rain mn
cm
humidity
%
barometer
mb
20260503032614 2 7 0.0 0.0 0.00 0.00 0.00 89 1018.0
20260503032113 2 7 0.0 0.0 0.00 0.00 0.00 88 1018.0
20260503031610 2 7 0.0 0.0 0.00 0.00 0.00 87 1018.2
20260503031108 2 7 0.0 0.0 0.00 0.00 0.00 87 1018.3
20260503030603 2 7 0.0 0.0 0.00 0.00 0.00 86 1018.4
20260503030100 2 7 0.0 0.0 0.00 0.00 0.00 86 1018.2
20260503025557 2 7 0.0 0.0 0.00 0.00 0.00 84 1018.4
20260503025055 2 7 0.0 0.0 0.00 0.00 0.00 84 1018.3
20260503024550 2 7 0.0 0.0 0.00 0.00 0.00 83 1018.3
20260503024048 2 7 0.0 0.0 0.00 0.00 0.00 82 1018.6
20260503023544 2 7 0.0 0.0 0.00 0.00 0.00 80 1018.4
20260503023042 3 7 0.0 0.0 0.00 0.00 0.00 79 1018.3
20260503022538 3 7 0.0 0.0 0.00 0.00 0.00 78 1018.4
20260503022033 3 7 0.0 0.0 0.00 0.00 0.00 76 1018.4
20260503021530 4 7 0.0 0.0 0.00 0.00 0.00 75 1018.1
20260503021027 5 7 0.0 0.0 0.00 0.00 0.00 71 1018.2
20260503020524 5 7 0.0 0.0 0.00 0.00 0.00 69 1018.1
20260503020021 5 7 0.0 0.0 0.00 0.00 0.00 66 1018.2
20260503015518 5 7 0.0 0.0 0.00 0.00 0.00 65 1018.1
20260503015015 6 7 0.0 0.0 0.00 0.00 0.00 63 1018.2
20260503014511 6 9 0.0 0.0 0.00 0.00 0.00 61 1018.0
20260503014009 6 8 0.0 0.0 0.00 0.00 0.00 59 1018.0
20260503013506 6 8 0.0 0.0 0.00 0.00 0.00 59 1017.9
20260503013003 6 9 0.0 0.0 0.00 0.00 0.00 59 1018.1
20260503012501 6 11 0.0 0.0 0.00 0.00 0.00 59 1018.1
20260503011956 6 3 0.0 0.0 0.00 0.00 0.00 59 1017.8
20260503011454 6 12 0.0 0.0 0.00 0.00 0.00 58 1017.9
20260503010950 7 7 0.0 0.0 0.00 0.00 0.00 57 1017.7
20260503010447 7 15 0.0 0.0 0.00 0.00 0.00 57 1018.0
20260503005944 7 15 0.0 0.0 0.00 0.00 0.00 56 1017.7
20260503005442 7 0 0.0 0.0 0.00 0.00 0.00 56 1017.6
20260503004938 7 14 0.0 0.0 0.00 0.00 0.00 56 1017.7
20260503004435 7 3 0.0 1.6 0.00 0.00 0.00 55 1017.7
20260503003933 7 11 1.6 1.6 0.00 0.00 0.00 53 1017.6
20260503003429 7 20 0.0 1.6 0.00 0.00 0.00 55 1017.7
20260503002927 7 25 0.0 1.6 0.00 0.00 0.00 54 1017.8
20260503002424 7 19 0.0 1.6 0.00 0.00 0.00 54 1017.6
20260503001920 7 22 3.2 3.2 0.00 0.00 0.00 54 1017.6
20260503001416 7 1 1.6 3.2 0.00 0.00 0.00 54 1017.7
20260503000914 7 330 1.6 3.2 0.00 0.00 0.00 52 1017.6
20260503000411 7 359 1.6 3.2 0.00 0.00 0.00 53 1017.6
20260502235908 7 332 0.0 1.6 0.00 0.00 0.00 53 1017.5
20260502235405 7 25 4.8 8.0 0.00 0.00 0.00 52 1017.5
20260502234902 7 17 1.6 1.6 0.00 0.00 0.00 52 1017.3
20260502234353 7 1 0.0 0.0 0.00 0.00 0.00 54 1017.3
20260502233850 8 0 1.6 1.6 0.00 0.00 0.00 52 1017.3
20260502233346 8 13 0.0 1.6 0.00 0.00 0.00 52 1017.3
20260502232843 8 14 0.0 1.6 0.00 0.00 0.00 51 1017.2
20260502232339 8 12 1.6 1.6 0.00 0.00 0.00 50 1017.3
20260502231836 8 351 1.6 1.6 0.00 0.00 0.00 50 1017.2
20260502231334 8 11 3.2 3.2 0.00 0.00 0.00 50 1017.3
20260502230832 8 6 0.0 0.0 0.00 0.00 0.00 51 1017.2
20260502230330 8 322 1.6 3.2 0.00 0.00 0.00 52 1017.3
20260502225826 8 24 1.6 1.6 0.00 0.00 0.00 49 1017.2
20260502225323 8 352 1.6 1.6 0.00 0.00 0.00 49 1017.3
20260502224820 8 351 0.0 1.6 0.00 0.00 0.00 49 1017.3
20260502224316 8 355 1.6 3.2 0.00 0.00 0.00 50 1017.1
20260502223814 8 11 3.2 3.2 0.00 0.00 0.00 48 1017.3
20260502223312 8 2 4.8 4.8 0.00 0.00 0.00 48 1017.4
20260502222809 8 19 1.6 1.6 0.00 0.00 0.00 50 1017.3
20260502222306 8 24 1.6 1.6 0.00 0.00 0.00 48 1017.1
20260502221801 8 1 4.8 9.7 0.00 0.00 0.00 49 1017.3
20260502221258 9 21 4.8 8.0 0.00 0.00 0.00 49 1017.1
20260502220755 9 45 3.2 4.8 0.00 0.00 0.00 47 1017.1
20260502220251 9 302 6.4 8.0 0.00 0.00 0.00 47 1017.2
20260502215748 9 268 3.2 4.8 0.00 0.00 0.00 47 1017.2
20260502215245 10 33 1.6 1.6 0.00 0.00 0.00 48 1017.0
20260502214742 10 13 4.8 4.8 0.00 0.00 0.00 47 1017.1
20260502214239 10 307 3.2 8.0 0.00 0.00 0.00 49 1017.0
20260502213736 10 325 3.2 9.7 0.00 0.00 0.00 49 1017.0
20260502213233 10 24 3.2 3.2 0.00 0.00 0.00 47 1016.9
20260502212732 10 27 4.8 4.8 0.00 0.00 0.00 49 1017.0
20260502212230 10 350 3.2 4.8 0.00 0.00 0.00 47 1017.0
20260502211726 10 20 1.6 1.6 0.00 0.00 0.00 49 1016.8
20260502211223 10 65 1.6 1.6 0.00 0.00 0.00 49 1016.8
20260502210720 9 12 3.2 3.2 0.00 0.00 0.00 49 1016.9
20260502210217 10 336 1.6 1.6 0.00 0.00 0.00 49 1016.9
20260502205715 9 336 1.6 1.6 0.00 0.00 0.00 46 1016.7
20260502205210 9 218 3.2 4.8 0.00 0.00 0.00 48 1016.8
20260502204708 10 26 4.8 8.0 0.00 0.00 0.00 50 1016.8
20260502204205 10 51 11.3 16.1 0.00 0.00 0.00 50 1016.8
20260502203702 11 358 9.7 12.9 0.00 0.00 0.00 45 1016.7
20260502203201 10 32 3.2 3.2 0.00 0.00 0.00 50 1016.8
20260502202654 9 8 0.0 1.6 0.00 0.00 0.00 48 1016.8
20260502202153 10 35 3.2 3.2 0.00 0.00 0.00 47 1017.0
20260502201650 10 353 6.4 8.0 0.00 0.00 0.00 48 1016.9
20260502201146 10 358 3.2 3.2 0.00 0.00 0.00 49 1016.9
20260502200642 10 355 0.0 1.6 0.00 0.00 0.00 51 1017.0
20260502200139 10 307 3.2 4.8 0.00 0.00 0.00 47 1017.1
20260502195637 10 15 3.2 3.2 0.00 0.00 0.00 45 1017.0
20260502195133 11 50 4.8 8.0 0.00 0.00 0.00 50 1017.1
20260502194630 10 0 1.6 3.2 0.00 0.00 0.00 47 1017.0
20260502194127 10 343 1.6 1.6 0.00 0.00 0.00 47 1017.0
20260502193623 10 354 1.6 1.6 0.00 0.00 0.00 46 1017.2
20260502193120 10 4 8.0 9.7 0.00 0.00 0.00 47 1017.3
20260502192616 10 298 1.6 3.2 0.00 0.00 0.00 47 1017.2
20260502192114 10 358 1.6 3.2 0.00 0.00 0.00 46 1017.1
20260502191610 10 2 3.2 3.2 0.00 0.00 0.00 46 1017.3
20260502191108 10 340 4.8 8.0 0.00 0.00 0.00 48 1017.3
20260502190605 9 34 3.2 4.8 0.00 0.00 0.00 50 1017.4
20260502185556 11 19 4.8 8.0 0.00 0.00 0.00 45 1017.4
20260502185054 10 231 3.2 4.8 0.00 0.00 0.00 49 1017.4
20260502184550 10 322 1.6 1.6 0.00 0.00 0.00 49 1017.3
20260502184045 10 31 3.2 4.8 0.00 0.00 0.00 47 1017.4
20260502183542 10 17 4.8 8.0 0.00 0.00 0.00 49 1017.6
20260502183038 10 347 6.4 11.3 0.00 0.00 0.00 47 1017.4
20260502182533 9 21 1.6 3.2 0.00 0.00 0.00 51 1017.5
20260502182030 10 353 3.2 3.2 0.00 0.00 0.00 49 1017.6
20260502181528 10 29 1.6 3.2 0.00 0.00 0.00 50 1017.5
20260502181027 10 8 3.2 3.2 0.00 0.00 0.00 51 1017.4
20260502180523 10 332 3.2 3.2 0.00 0.00 0.00 50 1017.6
20260502170442 10 20 6.4 8.0 0.00 0.00 0.00 53 1017.7
20260502163925 9 20 3.2 4.8 0.00 0.00 0.00 51 1017.8
20260502163421 10 57 3.2 3.2 0.00 0.00 0.00 53 1017.9
20260502162920 8 26 1.6 3.2 0.00 0.00 0.00 53 1017.9
20260502162416 9 316 3.2 4.8 0.00 0.00 0.00 50 1017.8
20260502161913 10 289 1.6 1.6 0.00 0.00 0.00 50 1018.0
20260502161409 8 22 1.6 3.2 0.00 0.00 0.00 53 1018.1
20260502160907 8 357 8.0 12.9 0.00 0.00 0.00 54 1018.0
20260502160405 9 34 1.6 1.6 0.00 0.00 0.00 51 1018.0
20260502151844 9 315 4.8 9.7 0.00 0.00 0.00 57 1018.0
20260502151340 8 319 4.8 4.8 0.00 0.00 0.00 54 1017.9
20260502150838 9 9 8.0 11.3 0.00 0.00 0.00 54 1017.9
20260502150334 8 345 3.2 3.2 0.00 0.00 0.00 55 1018.0
20260502130722 6 35 0.0 1.6 0.00 0.00 0.00 66 1017.8
20260502130220 6 114 1.6 3.2 0.00 0.00 0.00 67 1017.7
20260502123706 5 22 0.0 0.0 0.00 0.00 0.00 69 1017.6
20260502123202 5 286 1.6 1.6 0.00 0.00 0.00 71 1017.6
20260502122659 5 29 1.6 1.6 0.00 0.00 0.00 72 1017.4
20260502122155 5 14 0.0 1.6 0.00 0.00 0.00 73 1017.5
20260502121653 4 350 1.6 1.6 0.00 0.00 0.00 73 1017.4
20260502121151 5 323 4.8 8.0 0.00 0.00 0.00 75 1017.4
20260502120647 4 354 4.8 4.8 0.00 0.00 0.00 76 1017.5
20260502120144 3 44 3.2 3.2 0.00 0.00 0.00 77 1017.3
20260502115642 3 15 1.6 3.2 0.00 0.00 0.00 77 1017.4
20260502115138 3 22 3.2 4.8 0.00 0.00 0.00 79 1017.3
20260502114634 3 40 1.6 3.2 0.00 0.00 0.00 80 1017.3
20260502114132 3 0 1.6 1.6 0.00 0.00 0.00 82 1017.2
20260502113629 2 281 1.6 3.2 0.00 0.00 0.00 83 1017.2
20260502113127 2 19 1.6 3.2 0.00 0.00 0.00 86 1017.1
20260502112624 2 292 0.0 1.6 0.00 0.00 0.00 87 1017.2
20260502112122 1 6 1.6 3.2 0.00 0.00 0.00 87 1017.1
20260502111619 1 5 0.0 1.6 0.00 0.00 0.00 88 1017.3
20260502111116 1 312 0.0 1.6 0.00 0.00 0.00 88 1017.4
20260502110614 1 28 0.0 0.0 0.00 0.00 0.00 88 1017.1
20260502110111 1 22 0.0 0.0 0.00 0.00 0.00 88 1017.2
20260502105609 1 5 0.0 1.6 0.00 0.00 0.00 88 1017.2
20260502105106 1 17 0.0 0.0 0.00 0.00 0.00 88 1017.3
20260502104603 1 329 1.6 3.2 0.00 0.00 0.00 90 1017.1
20260502104100 1 15 1.6 1.6 0.00 0.00 0.00 90 1017.2
20260502103558 1 9 0.0 0.0 0.00 0.00 0.00 90 1017.2
20260502103056 1 1 0.0 0.0 0.00 0.00 0.00 90 1017.1
20260502102551 1 3 0.0 0.0 0.00 0.00 0.00 90 1017.2
20260502102049 1 2 0.0 0.0 0.00 0.00 0.00 90 1017.2
20260502101547 1 351 0.0 1.6 0.00 0.00 0.00 90 1017.2
20260502101045 1 345 0.0 0.0 0.00 0.00 0.00 91 1017.3
20260502100543 1 0 0.0 0.0 0.00 0.00 0.00 91 1017.1
20260502091518 1 19 0.0 0.0 0.00 0.00 0.00 91 1017.0
20260502091015 1 19 0.0 0.0 0.00 0.00 0.00 91 1017.4
20260502090512 1 20 0.0 0.0 0.00 0.00 0.00 91 1017.3
20260502071406 1 17 0.0 0.0 0.00 0.00 0.00 99 1016.8
20260502070905 1 19 0.0 0.0 0.00 0.00 0.00 99 1016.9
20260502070402 1 8 0.0 0.0 0.00 0.00 0.00 99 1016.8
20260502065901 1 4 0.0 0.0 0.00 0.00 0.00 99 1017.2
20260502065359 1 1 0.0 0.0 0.00 0.00 0.00 99 1017.0
20260502064856 1 358 0.0 0.0 0.00 0.00 0.00 99 1017.1
20260502064354 1 23 0.0 0.0 0.00 0.00 0.00 99 1017.2
20260502063851 1 13 0.0 0.0 0.00 0.00 0.00 99 1017.1
20260502063349 2 13 0.0 0.0 0.00 0.00 0.00 99 1017.2
20260502062846 2 24 0.0 0.0 0.00 0.00 0.00 99 1017.1
20260502062343 2 35 0.0 0.0 0.00 0.00 0.00 99 1017.3
20260502061842 2 33 0.0 0.0 0.00 0.00 0.00 99 1017.3
20260502061339 2 10 0.0 0.0 0.00 0.00 0.00 99 1017.2
20260502060835 2 13 0.0 0.0 0.00 0.00 0.00 99 1017.4
20260502060330 2 15 0.0 0.0 0.00 0.00 0.00 99 1017.3
20260502055828 2 15 0.0 0.0 0.00 0.00 0.00 99 1017.2
20260502055326 1 17 0.0 0.0 0.00 0.00 0.00 99 1017.3
20260502054825 1 12 0.0 0.0 0.00 0.00 0.00 99 1017.3
20260502054322 1 15 0.0 0.0 0.00 0.00 0.00 99 1017.3
20260502053820 1 15 0.0 0.0 0.00 0.00 0.00 99 1017.3
20260502053317 1 15 0.0 0.0 0.00 0.00 0.00 99 1017.5
20260502052814 1 15 0.0 0.0 0.00 0.00 0.00 99 1017.5
20260502052312 1 15 0.0 0.0 0.00 0.00 0.00 99 1017.3
20260502051810 1 15 0.0 0.0 0.00 0.00 0.00 99 1017.4
20260502051309 1 15 0.0 0.0 0.00 0.00 0.00 99 1017.2
20260502050804 2 15 0.0 0.0 0.00 0.00 0.00 99 1017.5
20260502050300 2 15 0.0 0.0 0.00 0.00 0.00 99 1017.4
20260502045758 2 26 0.0 0.0 0.00 0.00 0.00 99 1017.4
20260502045254 1 22 0.0 0.0 0.00 0.00 0.00 99 1017.5
20260502044752 2 17 0.0 0.0 0.00 0.00 0.00 99 1017.6
20260502044247 2 15 0.0 0.0 0.00 0.00 0.00 99 1017.4
20260502043745 1 20 0.0 0.0 0.00 0.00 0.00 99 1017.6
20260502043242 1 20 0.0 0.0 0.00 0.00 0.00 99 1017.4
20260502042742 1 20 0.0 0.0 0.00 0.00 0.00 99 1017.4
20260502042239 1 20 0.0 0.0 0.00 0.00 0.00 99 1017.4
20260502041737 2 20 0.0 0.0 0.00 0.00 0.00 99 1017.6
20260502041234 2 20 0.0 0.0 0.00 0.00 0.00 99 1017.5
20260502040731 2 20 0.0 0.0 0.00 0.00 0.00 99 1017.6
20260502040228 2 20 0.0 0.0 0.00 0.00 0.00 99 1017.5
20260502035724 2 20 0.0 0.0 0.00 0.30 0.30 98 1017.5
20260502035221 2 20 0.0 0.0 0.00 0.30 0.30 98 1017.5
20260502034718 2 20 0.0 0.0 0.00 0.30 0.30 98 1017.5
20260502034216 2 20 0.0 0.0 0.00 0.30 0.30 97 1017.4
20260502033714 2 20 0.0 0.0 0.00 0.30 0.30 97 1017.5
20260502033212 2 20 0.0 0.0 0.00 0.30 0.30 97 1017.4